User: anonymous   Login
Location: Melbourne
(37.8170°S, 144.9670°E)
Time: 03:23:17
(UTC+10:00)
Language:

Explorer 11/Cluster Stage 4 - Orbit

View from above orbital plane
View from above orbital plane
View from above satellite
View from above satellite

Ground track
Ground track

The orbit data is extracted from the following two-line orbital elements,

1 00107U 61013A   16269.12346198  .00001359  00000-0  16262-3 0  9995
2 00107  28.7914 305.3002 0550326 253.7921 100.1432 14.08002949773672
Epoch (UTC): 25 September 2016 02:57:47
Eccentricity: 0.0550326
inclination: 28.7914°
perigee height: 467 km
apogee height: 1265 km
right ascension of ascending node: 305.3002°
argument of perigee: 253.7921°
revolutions per day: 14.08002949
mean anomaly at epoch: 100.1432°
orbit number at epoch: 77367

The dashed part of the orbit path shows where the satellite is in the earth's shadow,  

DLR